SKYSAT-C5

Last updated on Sun Jun 21 2026 00:02:52 GMT+0000 (Coordinated Universal Time)

1 41772U 16058C 26171.36447191 .00006273 00000+0 18990-3 0 9990 2 41772 97.0466 211.8632 0000885 282.7780 77.3365 15.34507683544234
UTC large
Height (km)
Speed (km/s)
/
Latitude / Longitude
Inclination (degrees)
Orbital Period (minutes)
Azimuth
Elevation
Range (km)
Doppler Factor

Next 0 passes for location: London (51.5072 / 0.1276)

No passes found over London.
SKYSAT-C5